Stations météo

réclame
Mon MeteoGroup
Cazaux, France (7502): Température de l'air & dewpoint: 14.11.2017 12:00:00 - 20.11.2017 12:00:00 (CET)Cazaux, France (7502): Vitesse du vent & gusts: 14.11.2017 12:00:00 - 20.11.2017 12:00:00 (CET)Cazaux, France (7502): Direction du vent: 14.11.2017 12:00:00 - 20.11.2017 12:00:00 (CET)Cazaux, France (7502): reduced air pressure: 14.11.2017 12:00:00 - 20.11.2017 12:00:00 (CET)Cazaux, France (7502): visibility: 14.11.2017 12:00:00 - 20.11.2017 12:00:00 (CET)Cazaux, France (7502): Quantités de précipitations: 14.11.2017 12:00:00 - 20.11.2017 12:00:00 (CET)
Date & Time tt [°C] td [°C] ff [km/h] ff [knt] fx [km/h] fx [knt] dd ppp [hPa] vv [km] rr [mm]
20.11.2017 12:00:00 9,9 8,5 21 11 28 15 E 1025,7 10 0,0
20.11.2017 11:00:00 8,5 8,4 11 6 18 10 E 1025,7 10 0,0
20.11.2017 10:00:00 7,5 7,4 13 7 18 10 ESE 1025,5 8 -
20.11.2017 09:00:00 6,8 6,7 13 7 22 12 ESE 1025,7 2,6 0,0
20.11.2017 08:00:00 5,6 5,3 9 5 18 10 E 1025,7 1,3 0,0
20.11.2017 07:00:00 3,5 3,2 8 4 13 7 E 1025,6 0,5 -
20.11.2017 06:00:00 0,1 -0,3 0 0 4 2 N 1025,7 10 0,0
20.11.2017 05:00:00 -0,2 -0,8 4 2 5 3 N 1025,6 7 0,0
20.11.2017 04:00:00 0,9 0,5 2 1 5 3 NNE 1025,6 9 -
20.11.2017 03:00:00 1,2 0,6 4 2 5 3 - 1025,9 8 0,0
20.11.2017 02:00:00 1,6 1,0 0 0 4 2 N 1026,1 6 0,0
20.11.2017 01:00:00 1,6 1,0 2 1 5 3 - 1026,8 7 -
20.11.2017 00:00:00 2,5 1,8 0 0 5 3 N 1026,9 3,8 0,0
19.11.2017 23:00:00 2,9 2,2 2 1 4 2 - 1027,1 7 0,0
19.11.2017 22:00:00 3,0 2,1 0 0 5 3 N 1027,1 7 -
19.11.2017 21:00:00 4,1 3,1 2 1 8 4 - 1026,7 10 0,0
19.11.2017 20:00:00 4,9 3,7 4 2 8 4 NNW 1026,5 10 0,0
19.11.2017 19:00:00 6,1 3,9 5 3 9 5 N 1026,1 19 -
19.11.2017 18:00:00 10,2 4,3 5 3 9 5 NE 1026,0 10 0,0
19.11.2017 17:00:00 11,9 4,1 8 4 11 6 N 1025,7 10 0,0
19.11.2017 16:00:00 13,4 2,9 4 2 9 5 - 1025,6 10 -
19.11.2017 15:00:00 13,3 3,4 4 2 11 6 - 1025,6 10 0,0
19.11.2017 14:00:00 12,5 4,5 4 2 15 8 - 1026,0 10 0,0
19.11.2017 13:00:00 11,6 4,6 5 3 13 7 NNE 1026,7 10 -
19.11.2017 12:00:00 9,9 4,1 5 3 11 6 - 1027,2 10 0,0
19.11.2017 11:00:00 7,3 4,6 4 2 8 4 - 1027,3 10 0,0
19.11.2017 10:00:00 4,5 4,1 0 0 2 1 N 1026,9 8 -
19.11.2017 09:00:00 0,1 -0,2 2 1 4 2 W 1026,6 5 0,0
19.11.2017 08:00:00 -1,7 -2,0 0 0 4 2 N 1026,2 7 0,0
19.11.2017 07:00:00 -0,7 -1,0 4 2 5 3 N 1025,8 7 -
19.11.2017 06:00:00 -1,7 -2,0 0 0 5 3 N 1025,6 0,9 0,0
19.11.2017 05:00:00 0,0 -0,3 4 2 8 4 N 1025,7 0,8 0,0
19.11.2017 04:00:00 -0,8 -1,2 5 3 8 4 N 1025,7 0,5 -
19.11.2017 03:00:00 0,1 -0,3 4 2 5 3 N 1025,8 3,8 0,0
19.11.2017 02:00:00 0,5 -0,1 4 2 5 3 NW 1025,7 7 0,0
19.11.2017 01:00:00 0,8 0,2 0 0 4 2 N 1025,6 9 -
19.11.2017 00:00:00 1,1 0,5 4 2 8 4 NNW 1025,9 10 0,0
18.11.2017 23:00:00 2,5 1,9 5 3 8 4 N 1025,9 10 0,0
18.11.2017 22:00:00 2,4 1,7 4 2 5 3 N 1026,0 10 -
18.11.2017 21:00:00 3,3 2,4 4 2 4 2 N 1026,0 10 0,0
18.11.2017 20:00:00 5,5 4,6 2 1 8 4 NNW 1025,8 10 0,0
18.11.2017 19:00:00 6,6 4,9 8 4 9 5 N 1025,6 10 -
18.11.2017 18:00:00 8,6 5,5 8 4 13 7 N 1025,5 10 0,0
18.11.2017 17:00:00 11,0 5,7 9 5 15 8 N 1025,2 10 0,0
18.11.2017 16:00:00 12,3 5,7 9 5 16 9 N 1024,9 10 -
18.11.2017 15:00:00 12,5 6,3 11 6 18 10 N 1024,9 10 0,0
18.11.2017 14:00:00 12,8 5,7 9 5 16 9 NNE 1025,2 10 0,0
18.11.2017 13:00:00 11,6 5,7 9 5 18 10 NE 1025,6 10 -
18.11.2017 12:00:00 9,7 5,7 9 5 22 12 ENE 1026,2 10 0,0
18.11.2017 11:00:00 7,5 5,3 13 7 22 12 NE 1026,4 10 0,0
18.11.2017 10:00:00 5,4 4,5 9 5 15 8 NE 1026,2 10 -
18.11.2017 09:00:00 2,8 2,5 8 4 11 6 N 1025,8 5 0,0
18.11.2017 08:00:00 1,0 0,7 8 4 13 7 N 1025,3 5 0,2
18.11.2017 07:00:00 0,9 0,5 8 4 9 5 N 1024,9 6 -
18.11.2017 06:00:00 2,0 1,4 8 4 9 5 N 1024,4 10 0,0
18.11.2017 05:00:00 2,6 2,0 5 3 9 5 N 1024,4 10 0,0
18.11.2017 04:00:00 3,1 2,4 8 4 15 8 N 1024,5 10 -
18.11.2017 03:00:00 3,5 2,8 9 5 11 6 N 1024,5 10 0,0
18.11.2017 02:00:00 3,8 2,9 9 5 13 7 N 1024,1 10 0,0
18.11.2017 01:00:00 4,7 3,7 9 5 13 7 N 1024,2 10 -
18.11.2017 00:00:00 4,8 3,6 8 4 13 7 N 1024,4 10 0,0
17.11.2017 23:00:00 6,1 4,1 8 4 11 6 N 1024,3 10 0,0
17.11.2017 22:00:00 6,7 4,4 9 5 13 7 N 1024,1 10 -
17.11.2017 21:00:00 7,8 5,4 9 5 13 7 N 1024,0 10 0,0
17.11.2017 20:00:00 8,6 7,1 9 5 13 7 N 1023,8 10 0,0
17.11.2017 19:00:00 9,1 7,0 9 5 11 6 NNW 1023,6 10 -
17.11.2017 18:00:00 10,4 7,5 8 4 11 6 NNW 1023,2 10 0,0
17.11.2017 17:00:00 13,0 7,2 8 4 13 7 NW 1023,1 10 0,0
17.11.2017 16:00:00 14,9 6,2 9 5 15 8 NW 1023,0 10 -
17.11.2017 15:00:00 15,2 4,8 9 5 15 8 NNW 1023,2 10 0,0
17.11.2017 14:00:00 15,1 4,5 9 5 15 8 N 1023,4 10 0,0
17.11.2017 13:00:00 14,6 4,3 5 3 11 6 N 1023,9 50 -
17.11.2017 12:00:00 13,1 4,8 0 0 5 3 N 1024,4 10 0,0
17.11.2017 11:00:00 10,5 6,1 4 2 8 4 - 1024,7 10 0,0
17.11.2017 10:00:00 7,5 6,8 0 0 4 2 N 1024,7 10 -
17.11.2017 09:00:00 3,4 2,8 0 0 5 3 N 1024,4 10 0,0
17.11.2017 08:00:00 2,5 2,1 4 2 5 3 N 1024,1 10 0,0
17.11.2017 07:00:00 2,3 1,9 0 0 5 3 N 1023,9 10 -
17.11.2017 06:00:00 2,2 1,6 4 2 5 3 NNW 1023,8 10 0,0
17.11.2017 05:00:00 2,5 1,9 2 1 5 3 NW 1023,8 10 0,0
17.11.2017 04:00:00 2,5 1,9 2 1 5 3 NNW 1023,7 10 -
17.11.2017 03:00:00 3,9 3,3 5 3 5 3 N 1023,9 10 0,0
17.11.2017 02:00:00 4,7 4,1 2 1 5 3 - 1023,9 10 0,0
17.11.2017 01:00:00 4,6 3,9 4 2 5 3 NNW 1024,0 10 -
17.11.2017 00:00:00 5,4 4,7 0 0 4 2 N 1024,0 10 0,0
16.11.2017 23:00:00 5,4 4,5 2 1 8 4 NNW 1023,9 10 0,0
16.11.2017 22:00:00 5,7 4,8 0 0 5 3 N 1023,8 10 -
16.11.2017 21:00:00 5,3 4,3 2 1 4 2 - 1023,7 10 0,0
16.11.2017 20:00:00 6,8 5,7 2 1 4 2 N 1023,7 10 0,0
16.11.2017 19:00:00 7,4 5,2 0 0 4 2 N 1023,3 10 -
16.11.2017 18:00:00 9,1 6,2 2 1 8 4 NW 1023,0 10 0,0
16.11.2017 17:00:00 11,5 4,7 4 2 8 4 NW 1022,6 10 0,0
16.11.2017 16:00:00 13,3 3,6 8 4 9 5 SSW 1022,4 10 -
16.11.2017 15:00:00 15,1 3,9 4 2 9 5 - 1022,1 10 0,0
16.11.2017 14:00:00 13,7 2,3 2 1 8 4 - 1022,2 10 0,0
16.11.2017 13:00:00 12,8 3,7 4 2 8 4 - 1022,5 10 -
16.11.2017 12:00:00 10,2 3,9 2 1 9 5 - 1022,9 10 0,0
16.11.2017 11:00:00 7,4 4,2 4 2 8 4 - 1023,1 10 0,0
16.11.2017 10:00:00 3,7 2,7 2 1 5 3 - 1023,1 10 -
16.11.2017 09:00:00 0,9 0,5 2 1 5 3 - 1022,3 10 0,0
16.11.2017 08:00:00 -1,8 -2,5 0 0 5 3 N 1021,8 1,2 0,0
16.11.2017 07:00:00 -0,2 -0,8 5 3 5 3 N 1021,7 10 -
16.11.2017 06:00:00 -0,3 -0,9 2 1 4 2 N 1021,4 10 0,0
16.11.2017 05:00:00 -0,6 -1,3 0 0 4 2 N 1021,0 10 0,0
16.11.2017 04:00:00 -1,5 -2,6 0 0 8 4 N 1021,2 10 -
16.11.2017 03:00:00 1,0 0,1 5 3 8 4 N 1021,3 10 0,0
16.11.2017 02:00:00 1,3 0,4 5 3 8 4 N 1021,5 10 0,0
16.11.2017 01:00:00 1,3 0,3 5 3 5 3 N 1021,8 10 -
16.11.2017 00:00:00 1,9 1,0 4 2 8 4 NW 1022,0 10 0,0
15.11.2017 23:00:00 2,4 1,5 5 3 5 3 N 1022,1 10 0,0
15.11.2017 22:00:00 2,6 1,4 4 2 5 3 NNW 1021,9 10 -
15.11.2017 21:00:00 3,3 1,8 5 3 5 3 NW 1022,2 7 0,0
15.11.2017 20:00:00 4,5 1,9 4 2 9 5 WNW 1022,1 10 0,0
15.11.2017 19:00:00 7,3 1,8 11 6 15 8 NE 1021,7 10 -
15.11.2017 18:00:00 9,3 2,2 8 4 13 7 NNE 1021,9 10 0,0
15.11.2017 17:00:00 11,5 2,0 8 4 15 8 NNE 1021,6 10 0,0
15.11.2017 16:00:00 12,3 0,7 9 5 16 9 NE 1021,6 10 -
15.11.2017 15:00:00 11,9 2,9 8 4 13 7 - 1021,6 10 0,0
15.11.2017 14:00:00 9,7 2,8 8 4 13 7 NE 1022,3 10 0,0
15.11.2017 13:00:00 9,5 3,0 8 4 13 7 E 1022,9 10 -
15.11.2017 12:00:00 7,9 3,2 5 3 18 10 ENE 1023,8 10 0,0
15.11.2017 11:00:00 5,6 3,1 11 6 16 9 E 1024,2 10 0,0
15.11.2017 10:00:00 3,1 2,2 8 4 13 7 E 1024,5 8 -
15.11.2017 09:00:00 0,7 0,4 5 3 9 5 N 1024,7 7 0,0
15.11.2017 08:00:00 -0,4 -1,0 0 0 5 3 N 1024,5 10 0,2
15.11.2017 07:00:00 0,7 0,3 5 3 8 4 NNE 1024,4 9 -
15.11.2017 06:00:00 1,1 0,7 5 3 9 5 N 1024,5 10 0,0
15.11.2017 05:00:00 1,7 1,3 5 3 9 5 NNE 1024,6 8 0,0
15.11.2017 04:00:00 2,0 1,6 8 4 13 7 NNE 1024,9 8 -
15.11.2017 03:00:00 1,6 1,0 4 2 9 5 NNE 1025,7 8 0,0
15.11.2017 02:00:00 1,8 1,1 8 4 11 6 N 1025,5 10 0,0
15.11.2017 01:00:00 1,8 0,8 5 3 9 5 N 1025,9 10 -
15.11.2017 00:00:00 2,7 1,7 5 3 11 6 N 1026,5 10 0,0
14.11.2017 23:00:00 4,6 1,8 8 4 16 9 NNE 1026,7 10 0,0
14.11.2017 22:00:00 4,3 2,3 11 6 15 8 N 1026,9 50 -
14.11.2017 21:00:00 4,4 0,4 5 3 13 7 NE 1027,0 10 0,0
14.11.2017 20:00:00 6,1 2,9 9 5 16 9 N 1027,2 10 0,0
14.11.2017 19:00:00 5,8 2,1 8 4 15 8 N 1027,0 10 -
14.11.2017 18:00:00 7,9 2,4 9 5 16 9 N 1026,4 10 0,0
14.11.2017 17:00:00 10,5 1,6 13 7 18 10 NNE 1026,2 10 0,0
14.11.2017 16:00:00 11,1 2,1 13 7 22 12 NNE 1026,3 10 -
14.11.2017 15:00:00 11,1 2,1 13 7 22 12 NNE 1026,6 10 0,0
14.11.2017 14:00:00 10,8 2,6 8 4 18 10 NNE 1027,3 10 0,0
14.11.2017 13:00:00 10,4 1,7 13 7 21 11 NNE 1027,9 10 -
14.11.2017 12:00:00 9,3 3,1 8 4 15 8 N 1028,5 10 0,0

tt = Température de l'air
td = dewpoint
ff = Vitesse du vent
fx = gusts
dd = Direction du vent
ppp = reduced air pressure
vv = visibility
rr = Quantités de précipitations

stations d'obs. à proximité